1491210000.55,40873,16.5,74154.5,19.89,-17.21,-7.01,0,*7F
1491210001.8,40874,16.5,74156.5,19.89,-16.69,-6.51,0,*71
1491210003.08,40875,16.5,74154.5,19.89,-15.81,-5.61,0,*75
1491210004.33,40876,16.5,74158.3,19.89,-16.45,-6.27,0,*7C
1491210005.52,40877,16.5,74156.0,19.87,-16.75,-6.69,0,*7A
1491210006.75,40878,16.5,74154.8,19.87,-16.13,-6.51,0,*7E
1491210007.97,40879,16.5,74154.8,19.87,-15.85,-5.97,0,*7A
1491210009.22,40880,16.5,74156.0,19.87,-14.93,-5.23,0,*75
1491210010.44,40881,16.5,74152.3,19.87,-15.07,-5.31,0,*7B
1491210011.64,40882,16.5,74154.0,19.91,-16.03,-6.51,0,*7D
1491210012.87,40883,16.5,74154.8,19.91,-17.41,-7.83,0,*75
1491210014.12,40884,16.5,74152.3,19.89,-17.59,-7.87,0,*76
1491210015.35,40885,16.5,74156.3,19.89,-16.55,-7.15,0,*71
1491210016.57,40886,16.5,74154.8,19.91,-15.11,-5.85,0,*73
1491210017.77,40887,16.5,74148.5,19.91,-15.95,-6.77,0,*70
1491210018.96,40888,16.5,74154.3,19.91,-15.67,-6.59,0,*7E
1491210020.22,40889,16.5,74154.8,19.89,-18.93,-9.71,0,*75
1491210021.5,40890,16.5,74154.0,19.89,-20.19,-10.75,0,*48
1491210022.78,40891,16.5,74152.5,19.85,-21.53,-12.11,0,*4A
1491210024.04,40892,16.5,74152.3,19.81,-21.87,-12.39,0,*4E
1491210025.32,40893,16.5,74154.3,19.77,-21.03,-11.73,0,*47
1491210026.52,40894,16.5,74154.5,19.71,-22.63,-13.43,0,*42
1491210027.77,40895,16.5,74156.3,19.67,-23.03,-13.83,0,*4F
1491210029.02,40896,16.5,74150.8,19.63,-19.85,-10.97,0,*49
1491210030.27,40897,16.5,74152.8,19.63,-19.31,-10.49,0,*44
1491210031.5,40898,16.5,74154.0,19.59,-18.41,-9.75,0,*73
1491210032.7,40899,16.5,74152.8,19.61,-18.83,-10.15,0,*49
1491210033.94,40900,16.5,74152.3,19.59,-20.09,-11.33,0,*4F
1491210035.16,40901,16.5,74152.5,19.57,-19.13,-10.57,0,*42
1491210036.4,40902,16.5,74154.3,19.57,-20.35,-11.73,0,*48
1491210037.62,40903,16.5,74158.0,19.53,-20.25,-11.59,0,*44
1491210038.88,40904,16.5,74158.3,19.49,-20.35,-11.63,0,*40
1491210040.13,40905,16.5,74154.0,19.47,-19.61,-11.19,0,*49
1491210041.36,40906,16.5,74156.8,19.47,-18.83,-10.45,0,*4F
1491210042.6,40907,16.5,74156.0,19.45,-19.47,-11.07,0,*42
1491210043.86,40908,16.5,74156.0,19.47,-19.61,-11.41,0,*49
1491210045.09,40909,16.5,74152.8,19.45,-18.73,-10.75,0,*4E
1491210046.35,40910,16.5,74158.0,19.43,-19.23,-11.15,0,*43
1491210047.61,40911,16.5,74156.8,19.43,-18.93,-10.89,0,*4C
1491210048.83,40912,16.5,74156.5,19.41,-19.07,-10.97,0,*4E
1491210050.11,40913,16.5,74154.3,19.39,-19.61,-11.55,0,*4F
1491210051.35,40914,16.5,74158.5,19.39,-17.83,-10.01,0,*4A
1491210052.57,40915,16.5,74158.0,19.37,-17.03,-9.31,0,*76
1491210053.83,40916,16.5,74156.5,19.37,-17.07,-9.37,0,*77
1491210055.06,40917,16.5,74152.3,19.39,-18.21,-10.57,0,*4D
1491210056.29,40918,16.5,74156.8,19.39,-18.21,-10.57,0,*42
1491210057.52,40919,16.5,74152.8,19.39,-17.49,-9.93,0,*72
1491210058.75,40920,16.5,74158.0,19.39,-18.11,-10.45,0,*49
1491210059.98,40921,16.5,74158.0,19.39,-16.45,-8.97,0,*71
1491210061.2,40922,16.5,74156.8,19.37,-17.21,-9.89,0,*71
1491210062.44,40923,16.5,74152.8,19.37,-18.21,-10.75,0,*44
1491210063.67,40924,16.5,74156.0,19.37,-16.83,-9.37,0,*7B
1491210064.89,40925,16.5,74156.0,19.39,-16.55,-9.19,0,*73
1491210066.14,40926,16.5,74154.8,19.37,-16.27,-8.81,0,*7B
1491210067.39,40927,16.5,74152.8,19.39,-17.03,-9.75,0,*79
1491210068.64,40928,16.5,74154.3,19.39,-16.13,-8.93,0,*7F
1491210069.9,40929,16.5,74154.3,19.39,-17.07,-9.89,0,*70
1491210071.12,40930,16.56,74156.3,19.39,-16.83,-9.67,0,*75
1491210072.4,40931,16.5,74158.0,19.39,-16.69,-9.49,0,*7C
1491210073.62,40932,16.5,74156.8,19.39,-15.99,-8.93,0,*75
1491210074.83,40933,16.56,74156.3,19.41,-15.53,-8.37,0,*73
1491210076.02,40934,16.5,74158.3,19.41,-15.75,-8.67,0,*75
1491210077.25,40935,16.5,74152.3,19.43,-15.75,-8.75,0,*75
1491210078.5,40936,16.5,74156.5,19.43,-14.61,-7.65,0,*7C
1491210079.72,40937,16.5,74154.3,19.45,-14.29,-7.31,0,*76
1491210080.95,40938,16.5,74152.3,19.47,-13.69,-6.55,0,*7B
1491210082.17,40939,16.56,74156.0,19.53,-13.61,-6.09,0,*7E
1491210083.39,40940,16.5,74154.8,19.53,-12.43,-5.03,0,*78
1491210084.62,40941,16.5,74156.8,19.57,-13.01,-5.51,0,*7D
1491210085.84,40942,16.5,74154.0,19.57,-11.67,-4.25,0,*7E
1491210087.05,40943,16.56,74156.0,19.61,-11.11,-3.63,0,*7E
1491210088.25,40944,16.5,74152.8,19.61,-10.19,-2.87,0,*7B
1491210089.53,40945,16.56,74154.5,19.65,-9.37,-2.07,0,*42
1491210090.79,40946,16.56,74156.3,19.65,-9.11,-1.67,0,*40
1491210092.0,40947,16.5,74152.3,19.67,-8.41,-0.85,0,*7A
1491210093.19,40948,16.5,74152.3,19.75,-8.29,-0.53,0,*73
1491210094.41,40949,16.5,74152.8,19.75,-8.03,0.17,0,*57
1491210095.61,40950,16.56,74156.8,19.75,-8.03,0.43,0,*5E
1491210096.87,40951,16.5,74152.3,19.81,-7.95,1.13,0,*60
1491210098.09,40952,16.56,74156.0,19.83,-8.11,1.01,0,*61
1491210099.32,40953,16.5,74154.0,19.87,-7.99,1.17,0,*6C
1491210100.53,40954,16.5,74152.3,19.87,-8.29,1.21,0,*6A
1491210101.77,40955,16.56,74156.0,19.89,-9.23,0.47,0,*5F
1491210102.97,40956,16.56,74156.0,19.91,-8.75,0.87,0,*5B
1491210104.21,40957,16.56,74154.3,19.93,-8.55,1.13,0,*66
1491210105.42,40958,16.56,74156.5,19.95,-8.33,1.29,0,*66
1491210106.65,40959,16.56,74156.0,20.01,-9.19,0.25,0,*54
1491210107.88,40960,16.56,74152.5,20.03,-9.83,-0.27,0,*70
1491210109.08,40961,16.5,74152.0,20.03,-10.15,-0.53,0,*45
1491210110.29,40962,16.56,74156.3,20.05,-10.23,-0.61,0,*44
1491210111.52,40963,16.56,74154.5,20.05,-10.89,-1.21,0,*70
1491210112.77,40964,16.56,74156.0,20.05,-11.01,-1.43,0,*72
1491210114.02,40965,16.56,74156.8,20.05,-11.73,-2.19,0,*7A
1491210115.25,40966,16.56,74158.3,20.03,-12.21,-2.59,0,*7F
1491210116.45,40967,16.56,74156.5,20.03,-14.11,-4.41,0,*74
1491210117.7,40968,16.56,74154.0,20.05,-13.29,-3.87,0,*7C
1491210118.94,40969,16.56,74152.8,20.05,-12.97,-3.47,0,*75
1491210120.14,40970,16.56,74158.3,20.03,-13.73,-4.37,0,*70
1491210121.39,40971,16.56,74154.8,20.01,-14.65,-5.19,0,*7E
1491210122.64,40972,16.56,74156.3,20.01,-15.25,-5.73,0,*74
1491210123.87,40973,16.56,74154.3,19.99,-14.37,-5.07,0,*7F
1491210125.09,40974,16.56,74154.5,19.93,-15.49,-6.05,0,*7B
1491210126.31,40975,16.56,74154.8,19.93,-16.89,-7.53,0,*77
1491210127.56,40976,16.56,74152.5,19.89,-15.07,-5.89,0,*7F
1491210128.78,40977,16.56,74152.5,19.89,-15.11,-6.31,0,*79
1491210130.07,40978,16.56,74156.8,19.89,-14.51,-5.61,0,*75
1491210131.31,40979,16.56,74154.8,19.89,-13.93,-4.93,0,*71
1491210132.54,40980,16.56,74154.8,19.87,-16.69,-7.87,0,*7F
1491210133.81,40981,16.56,74154.8,19.85,-17.97,-8.81,0,*75
1491210135.07,40982,16.56,74156.5,19.81,-19.41,-10.53,0,*41
1491210136.3,40983,16.56,74152.8,19.71,-20.63,-11.51,0,*46
1491210137.53,40984,16.56,74154.3,19.67,-19.99,-10.79,0,*42
1491210138.77,40985,16.56,74154.3,19.63,-20.73,-11.59,0,*4A
1491210140.02,40986,16.56,74156.0,19.55,-20.73,-11.73,0,*44
1491210141.25,40987,16.56,74152.5,19.49,-20.15,-11.23,0,*4D
1491210142.48,40988,16.56,74154.0,19.45,-20.43,-11.51,0,*48
1491210143.69,40989,16.56,74154.0,19.41,-21.13,-12.47,0,*4D
1491210144.95,40990,16.56,74156.3,19.35,-22.47,-13.55,0,*46
1491210146.2,40991,16.56,74152.3,19.31,-19.23,-10.67,0,*4B
1491210147.43,40992,16.56,74156.3,19.23,-19.65,-11.45,0,*48
1491210148.68,40993,16.56,74152.3,19.21,-19.37,-11.37,0,*49
1491210149.92,40994,16.56,74152.8,19.17,-20.89,-12.97,0,*4D
1491210151.14,40995,16.56,74158.8,19.11,-21.27,-13.65,0,*43
1491210152.37,40996,16.56,74154.0,19.07,-21.39,-13.61,0,*4C
1491210153.58,40997,16.56,74154.3,18.97,-20.63,-13.11,0,*4C
1491210154.81,40998,16.56,74154.3,18.93,-20.89,-13.33,0,*43
1491210156.04,40999,16.56,74152.8,18.89,-20.05,-12.79,0,*42
1491210157.32,41000,16.56,74154.8,18.87,-19.65,-12.65,0,*45
1491210158.62,41001,16.56,74154.0,18.79,-17.41,-10.67,0,*4D
1491210159.85,41002,16.56,74154.8,18.79,-16.41,-9.71,0,*70
1491210161.09,41003,16.56,74152.5,18.79,-16.41,-9.71,0,*71
1491210162.34,41004,16.56,74152.3,18.77,-15.81,-9.11,0,*71
1491210163.56,41005,16.56,74156.8,18.77,-15.15,-8.51,0,*78
1491210164.76,41006,16.56,74154.3,18.77,-14.69,-8.21,0,*76
1491210165.95,41007,16.56,74152.8,18.77,-15.67,-9.23,0,*7B
1491210167.15,41008,16.56,74154.3,18.77,-15.29,-8.93,0,*74
1491210168.43,41009,16.56,74156.3,18.79,-15.85,-9.45,0,*77
1491210169.67,41010,16.56,74152.5,18.81,-16.09,-9.71,0,*78
1491210170.95,41011,16.56,74156.0,18.79,-15.81,-9.45,0,*7A
1491210172.19,41012,16.56,74152.3,18.79,-15.39,-9.19,0,*73
1491210173.42,41013,16.56,74152.3,18.79,-15.07,-9.05,0,*72
1491210174.68,41014,16.56,74154.5,18.79,-16.09,-10.09,0,*4C
1491210175.93,41015,16.56,74154.0,18.79,-15.49,-9.57,0,*79
1491210177.19,41016,16.56,74156.0,18.81,-16.51,-10.67,0,*4C
1491210178.48,41017,16.56,74152.0,18.79,-17.59,-11.67,0,*42
1491210179.73,41018,16.56,74152.8,18.77,-17.63,-12.07,0,*4F
1491210180.99,41019,16.56,74152.5,18.75,-19.61,-13.73,0,*42
1491210182.24,41020,16.56,74154.0,18.71,-19.71,-13.87,0,*46
1491210183.46,41021,16.56,74154.8,18.69,-21.47,-15.53,0,*4F
1491210184.66,41022,16.56,74154.8,18.63,-20.39,-14.29,0,*42
1491210185.89,41023,16.56,74154.3,18.55,-23.09,-17.03,0,*4D
1491210187.14,41024,16.56,74156.8,18.51,-22.77,-16.51,0,*40
1491210188.4,41025,16.56,74152.8,18.45,-22.17,-15.99,0,*45
1491210189.68,41026,16.56,74152.5,18.41,-21.67,-15.81,0,*4F
1491210190.97,41027,16.56,74154.8,18.35,-21.27,-15.39,0,*4A
1491210192.19,41028,16.56,74154.3,18.31,-21.43,-15.67,0,*48
1491210193.46,41029,16.56,74156.0,18.27,-20.35,-14.51,0,*4A
1491210194.69,41030,16.56,74152.3,18.23,-19.71,-13.93,0,*45
1491210195.92,41031,16.56,74158.0,18.19,-21.63,-15.99,0,*49
1491210197.13,41032,16.56,74156.0,18.13,-20.89,-15.15,0,*41
1491210198.39,41033,16.56,74156.5,18.11,-20.79,-15.15,0,*4D
1491210199.6,41034,16.56,74156.5,18.09,-21.09,-15.53,0,*47
1491210200.86,41035,16.56,74156.8,18.05,-21.03,-15.43,0,*41
1491210202.09,41036,16.56,74154.8,18.01,-21.09,-15.53,0,*4D
1491210203.32,41037,16.56,74158.5,18.01,-19.71,-14.15,0,*4B
1491210204.57,41038,16.56,74156.8,17.97,-19.61,-14.11,0,*41
1491210205.78,41039,16.56,74154.5,17.95,-19.37,-13.93,0,*4C
1491210207.03,41040,16.56,74154.0,17.91,-19.85,-14.51,0,*46
1491210208.22,41041,16.56,74154.5,17.91,-20.29,-14.89,0,*4E
1491210209.44,41042,16.56,74154.8,17.87,-19.07,-13.79,0,*44
1491210210.72,41043,16.56,74158.0,17.89,-18.35,-13.01,0,*44
1491210211.92,41044,16.56,74152.8,17.87,-19.75,-14.23,0,*4F
1491210213.16,41045,16.56,74158.5,17.85,-18.49,-12.93,0,*4F
1491210214.35,41046,16.56,74152.3,17.83,-19.91,-14.33,0,*42
1491210215.61,41047,16.56,74156.3,17.81,-20.43,-14.43,0,*43
1491210216.84,41048,16.56,74158.0,17.79,-21.93,-15.85,0,*4C
1491210218.11,41049,16.56,74156.0,17.75,-21.53,-15.39,0,*4A
1491210219.37,41050,16.56,74154.3,17.73,-19.17,-13.29,0,*48
1491210220.57,41051,16.56,74158.3,17.69,-18.65,-13.07,0,*4A
1491210221.83,41052,16.56,74154.8,17.69,-18.01,-12.57,0,*4F
1491210223.04,41053,16.56,74154.3,17.69,-18.73,-13.19,0,*40
1491210224.29,41054,16.56,74156.3,17.67,-19.27,-13.65,0,*42
1491210225.52,41055,16.56,74158.8,17.65,-18.59,-12.97,0,*45
1491210226.8,41056,16.56,74156.5,17.67,-17.59,-12.11,0,*45
1491210228.02,41057,16.56,74154.3,17.67,-18.83,-13.47,0,*4E
1491210229.24,41058,16.56,74156.5,17.65,-18.21,-12.65,0,*4A
1491210230.5,41059,16.56,74158.3,17.67,-16.97,-11.63,0,*4F
1491210231.76,41060,16.56,74156.0,17.65,-16.65,-11.67,0,*4E
1491210233.0,41061,16.56,74158.5,17.67,-16.97,-11.81,0,*48
1491210234.26,41062,16.56,74152.0,17.69,-16.65,-11.73,0,*45
1491210235.49,41063,16.56,74158.8,17.73,-16.03,-11.11,0,*4B
1491210236.75,41064,16.56,74154.8,17.73,-15.63,-10.79,0,*46
1491210238.01,41065,16.56,74156.8,17.75,-16.17,-11.55,0,*4E
1491210239.24,41066,16.56,74158.0,17.75,-16.93,-12.11,0,*42
1491210240.53,41067,16.56,74154.3,17.77,-17.17,-12.53,0,*4A
1491210241.73,41068,16.56,74154.0,17.75,-18.21,-13.55,0,*4A
1491210242.97,41069,16.56,74158.3,17.75,-17.49,-12.83,0,*40
1491210244.26,41070,16.56,74158.0,17.73,-17.41,-12.75,0,*4F
1491210245.51,41071,16.56,74156.5,17.73,-16.83,-12.15,0,*47
1491210246.75,41072,16.56,74158.3,17.73,-15.67,-11.11,0,*4A
1491210247.98,41073,16.56,74156.3,17.77,-15.07,-10.57,0,*4A
1491210249.24,41074,16.56,74154.8,17.77,-15.25,-10.71,0,*49
1491210250.49,41075,16.56,74154.8,17.81,-15.35,-10.85,0,*4B
1491210251.72,41076,16.56,74156.3,17.81,-14.89,-10.35,0,*45
1491210252.95,41077,16.56,74152.8,17.83,-14.75,-10.19,0,*4B
1491210254.18,41078,16.56,74158.8,17.87,-14.11,-9.61,0,*75
1491210255.4,41079,16.56,74154.3,17.89,-13.65,-9.27,0,*7C
1491210256.6,41080,16.56,74152.5,17.95,-12.97,-8.59,0,*73
1491210257.83,41081,16.56,74156.5,17.97,-14.65,-10.31,0,*4C
1491210259.07,41082,16.56,74152.5,17.99,-15.01,-10.79,0,*4E
1491210260.29,41083,16.56,74154.8,18.01,-13.93,-9.89,0,*7B
1491210261.51,41084,16.56,74158.3,18.03,-13.55,-9.61,0,*72
1491210262.76,41085,16.56,74152.3,18.03,-13.01,-9.37,0,*71
1491210264.01,41086,16.56,74154.3,18.07,-12.79,-9.19,0,*74
1491210265.26,41087,16.56,74156.0,18.11,-11.77,-8.33,0,*76
1491210266.48,41088,16.56,74152.5,18.13,-12.83,-9.79,0,*7C
1491210267.69,41089,16.56,74154.8,18.17,-12.29,-9.23,0,*76
1491210268.92,41090,16.56,74154.0,18.17,-12.29,-9.37,0,*7B
1491210270.18,41091,16.56,74152.8,18.19,-12.07,-8.93,0,*77
1491210271.45,41092,16.56,74154.5,18.19,-11.51,-8.81,0,*77
1491210272.67,41093,16.56,74152.3,18.21,-11.41,-8.51,0,*71
1491210273.92,41094,16.56,74156.0,18.23,-11.33,-8.45,0,*74
1491210275.15,41095,16.56,74156.3,18.23,-10.93,-8.17,0,*79
1491210276.34,41096,16.56,74158.3,18.25,-9.75,-6.85,0,*49
1491210277.57,41097,16.56,74152.0,18.27,-9.75,-6.81,0,*4E
1491210278.79,41098,16.56,74154.5,18.29,-10.45,-7.57,0,*7E
1491210280.01,41099,16.56,74152.5,18.29,-10.97,-7.95,0,*7E
1491210281.23,41100,16.56,74152.8,18.29,-11.63,-8.67,0,*77
1491210282.47,41101,16.56,74158.3,18.31,-11.51,-8.21,0,*7C
1491210283.72,41102,16.56,74152.5,18.31,-12.35,-8.97,0,*73
1491210284.99,41103,16.56,74152.3,18.31,-12.57,-9.11,0,*79
1491210286.24,41104,16.56,74152.8,18.31,-12.21,-8.51,0,*7A
1491210287.48,41105,16.56,74152.8,18.31,-14.19,-10.15,0,*4F
1491210288.71,41106,16.56,74156.8,18.27,-15.49,-11.15,0,*4E
1491210289.97,41107,16.56,74154.5,18.23,-16.17,-11.45,0,*46
1491210291.2,41108,16.56,74154.5,18.23,-15.07,-10.19,0,*43
1491210292.43,41109,16.56,74152.8,18.17,-15.57,-10.45,0,*49
1491210293.67,41110,16.56,74152.8,18.13,-16.93,-11.63,0,*4B
1491210294.93,41111,16.56,74158.5,18.09,-17.45,-11.77,0,*4E
1491210296.14,41112,16.56,74150.3,18.05,-16.83,-11.11,0,*4A
1491210297.35,41113,16.56,74154.3,18.05,-16.03,-10.19,0,*4A
1491210298.59,41114,16.56,74156.0,18.01,-16.37,-10.15,0,*42
1491210299.84,41115,16.63,74158.8,17.97,-17.17,-10.85,0,*49
1491210301.06,41116,16.56,74154.8,17.91,-19.95,-13.01,0,*47
1491210302.3,41117,16.56,74154.3,17.87,-19.47,-12.35,0,*48
1491210303.56,41118,16.56,74152.3,17.83,-19.23,-11.89,0,*45
1491210304.79,41119,16.56,74156.5,17.79,-19.13,-11.51,0,*47
1491210306.01,41120,16.56,74156.0,17.75,-17.83,-10.01,0,*42
1491210307.26,41121,16.56,74152.8,17.67,-17.17,-9.19,0,*7C
1491210308.5,41122,16.56,74156.8,17.67,-17.03,-8.75,0,*71
1491210309.71,41123,16.56,74154.5,17.65,-17.03,-8.67,0,*71
1491210310.94,41124,16.56,74154.5,17.61,-17.87,-9.11,0,*7E
1491210312.22,41125,16.56,74152.0,17.59,-18.31,-9.61,0,*71
1491210313.47,41126,16.56,74154.8,17.55,-19.13,-10.19,0,*48
1491210314.68,41127,16.56,74154.5,17.53,-19.71,-10.53,0,*45
1491210315.92,41128,16.56,74152.8,17.43,-19.51,-10.35,0,*49
1491210317.15,41129,16.56,74152.5,17.39,-19.37,-9.97,0,*75
1491210318.38,41130,16.56,74154.3,17.35,-19.13,-9.79,0,*77
1491210319.61,41131,16.56,74154.8,17.31,-18.69,-9.27,0,*75
1491210320.84,41132,16.56,74154.8,17.29,-19.13,-9.57,0,*74
1491210322.06,41133,16.56,74152.5,17.27,-19.03,-9.31,0,*7A
1491210323.25,41134,16.63,74158.0,17.21,-18.25,-8.55,0,*7D
1491210324.44,41135,16.56,74152.5,17.17,-17.87,-8.29,0,*75
1491210325.64,41136,16.56,74152.0,17.13,-18.25,-8.41,0,*7B
1491210326.92,41137,16.63,74158.5,17.11,-17.21,-7.27,0,*7C
1491210328.17,41138,16.56,74156.8,17.11,-16.23,-6.43,0,*73
1491210329.4,41139,16.56,74154.0,17.09,-16.55,-6.63,0,*78
1491210330.65,41140,16.56,74152.5,17.09,-16.31,-6.19,0,*79
1491210331.87,41141,16.56,74154.3,17.05,-17.35,-7.19,0,*70
1491210333.11,41142,16.56,74154.5,16.99,-16.51,-6.31,0,*7F
1491210334.36,41143,16.56,74156.8,16.99,-17.55,-7.35,0,*7E
1491210335.56,41144,16.56,74154.8,16.95,-16.41,-6.35,0,*70
1491210336.79,41145,16.56,74152.5,16.91,-15.49,-5.65,0,*78
1491210338.04,41146,16.56,74156.3,16.91,-15.57,-5.69,0,*78
1491210339.29,41147,16.56,74154.3,16.87,-15.39,-5.69,0,*76
1491210340.53,41148,16.63,74158.3,16.89,-15.25,-5.55,0,*75
1491210341.78,41149,16.63,74158.0,16.85,-15.53,-5.85,0,*74
1491210343.01,41150,16.63,74156.0,16.83,-15.53,-5.89,0,*76
1491210344.26,41151,16.56,74152.0,16.81,-15.95,-6.19,0,*75
1491210345.52,41152,16.56,74154.5,16.75,-15.39,-5.51,0,*74
1491210346.75,41153,16.63,74156.3,16.75,-14.15,-4.45,0,*7E
1491210347.94,41154,16.63,74158.8,16.73,-15.11,-5.39,0,*70
1491210349.16,41155,16.63,74156.8,16.71,-16.03,-6.05,0,*7F
1491210350.42,41156,16.56,74156.3,16.67,-15.75,-5.85,0,*72
1491210351.67,41157,16.56,74150.3,16.63,-15.63,-5.93,0,*77
1491210352.93,41158,16.56,74152.5,16.63,-14.89,-5.23,0,*76
1491210354.15,41159,16.63,74158.3,16.59,-15.75,-5.97,0,*73
1491210355.41,41160,16.56,74154.8,16.53,-15.43,-5.61,0,*7F
1491210356.64,41161,16.56,74154.8,16.51,-14.29,-4.61,0,*70
1491210357.89,41162,16.56,74154.8,16.47,-14.93,-5.39,0,*79
1491210359.15,41163,16.63,74154.5,16.45,-16.27,-6.63,0,*7B
1491210360.36,41164,16.56,74152.5,16.39,-15.75,-6.31,0,*74
1491210361.59,41165,16.63,74154.5,16.39,-13.87,-4.65,0,*7D
1491210362.85,41166,16.63,74156.8,16.33,-13.79,-4.57,0,*74
1491210364.05,41167,16.56,74154.8,16.31,-13.55,-4.05,0,*7E
1491210365.28,41168,16.56,74152.0,16.31,-13.37,-3.83,0,*7C
1491210366.54,41169,16.63,74156.5,16.29,-12.75,-3.19,0,*70
1491210367.77,41170,16.56,74152.8,16.27,-13.87,-4.25,0,*72
1491210369.02,41171,16.63,74156.5,16.21,-13.23,-3.55,0,*7B
1491210370.29,41172,16.56,74156.0,16.21,-13.37,-3.55,0,*7D
1491210371.52,41173,16.56,74154.8,16.19,-11.97,-2.23,0,*7F
1491210372.75,41174,16.63,74160.0,16.19,-12.71,-2.83,0,*79
1491210373.96,41175,16.63,74158.5,16.15,-13.19,-3.03,0,*72
1491210375.17,41176,16.63,74152.8,16.15,-12.47,-2.39,0,*73
1491210376.4,41177,16.63,74156.3,16.13,-12.25,-2.15,0,*7E
1491210377.62,41178,16.56,74152.8,16.11,-11.67,-1.75,0,*73
1491210378.84,41179,16.56,74154.0,16.11,-10.89,-1.13,0,*73
1491210380.04,41180,16.56,74154.8,16.11,-10.19,-0.41,0,*4A
1491210381.25,41181,16.63,74154.3,16.11,-10.85,-1.13,0,*78
1491210382.44,41182,16.63,74156.3,16.07,-11.15,-1.25,0,*71
1491210383.69,41183,16.63,74158.0,16.05,-12.21,-2.47,0,*71
1491210384.91,41184,16.63,74156.3,16.05,-12.29,-2.35,0,*7B
1491210386.15,41185,16.56,74154.8,16.01,-11.73,-1.79,0,*79
1491210387.39,41186,16.63,74158.8,16.01,-11.15,-1.05,0,*71
1491210388.59,41187,16.56,74154.5,15.99,-10.31,-0.41,0,*44
1491210389.83,41188,16.63,74158.5,15.97,-10.63,-0.65,0,*44
1491210391.0,41189,16.63,74158.0,15.95,-9.75,0.09,0,*6F
1491210392.22,41190,16.63,74154.5,15.95,-9.57,0.29,0,*55
1491210393.42,41191,16.63,74158.3,15.97,-9.97,0.01,0,*60
1491210394.68,41192,16.56,74154.8,15.97,-9.15,0.51,0,*5C
1491210395.91,41193,16.63,74156.5,15.95,-9.45,0.47,0,*5D
1491210397.14,41194,16.63,74158.0,15.93,-8.63,1.29,0,*60
1491210398.37,41195,16.63,74156.3,15.95,-9.15,0.71,0,*5B
1491210399.6,41196,16.63,74156.5,15.95,-9.41,0.59,0,*53
1491210400.8,41197,16.63,74156.8,15.95,-9.67,0.25,0,*5D
1491210402.02,41198,16.63,74158.0,15.93,-8.55,1.17,0,*64
1491210403.25,41199,16.63,74154.8,15.93,-8.17,1.51,0,*61
1491210404.48,41200,16.63,74156.0,15.95,-8.07,1.55,0,*61
1491210405.71,41201,16.63,74156.8,15.93,-8.41,1.21,0,*67
1491210406.91,41202,16.63,74156.3,15.95,-7.83,1.59,0,*6C
1491210408.1,41203,16.63,74156.3,15.95,-7.99,1.41,0,*6F
1491210409.35,41204,16.63,74156.3,15.93,-7.95,1.29,0,*6C
1491210410.57,41205,16.63,74154.8,15.93,-8.17,0.95,0,*5E
1491210411.82,41206,16.63,74152.3,15.93,-6.23,2.89,0,*6B
1491210413.03,41207,16.63,74156.0,15.95,-5.07,3.81,0,*60
1491210414.22,41208,16.56,74154.8,15.99,-3.95,4.81,0,*69
1491210415.45,41209,16.63,74156.3,15.99,-3.95,4.71,0,*67
1491210416.65,41210,16.63,74158.3,16.07,-2.95,5.73,0,*69
1491210417.91,41211,16.63,74158.5,16.13,-3.71,5.07,0,*65
1491210419.14,41212,16.63,74156.8,16.17,-2.27,6.43,0,*63
1491210420.39,41213,16.56,74154.5,16.21,-2.63,6.33,0,*60
1491210421.64,41214,16.63,74158.8,16.29,-2.19,6.91,0,*6A
1491210422.9,41215,16.63,74152.5,16.37,-1.95,7.19,0,*62
1491210424.12,41216,16.63,74152.8,16.41,-3.15,5.95,0,*6C
1491210425.31,41217,16.63,74156.3,16.45,-4.09,5.33,0,*6F
1491210426.54,41218,16.63,74156.3,16.49,-3.95,5.51,0,*6A
1491210427.73,41219,16.63,74158.3,16.53,-3.31,6.25,0,*6E
1491210428.91,41220,16.63,74154.5,16.61,-2.31,7.33,0,*62
1491210430.1,41221,16.63,74156.0,16.65,-2.31,7.29,0,*6C
1491210431.34,41222,16.63,74156.0,16.71,-2.43,7.23,0,*65
1491210432.58,41223,16.63,74154.0,16.77,-4.05,5.81,0,*6C
1491210433.8,41224,16.63,74156.8,16.81,-3.87,5.99,0,*66
1491210435.02,41225,16.63,74152.3,16.89,-3.75,6.29,0,*6A
1491210436.26,41226,16.63,74154.3,16.89,-4.25,5.93,0,*69
1491210437.47,41227,16.63,74154.8,16.97,-4.53,5.49,0,*61
1491210438.71,41228,16.63,74158.8,17.01,-3.27,6.65,0,*69
1491210439.91,41229,16.63,74154.0,17.07,-2.75,7.09,0,*63
1491210441.15,41230,16.63,74154.3,17.11,-3.11,6.73,0,*63
1491210442.34,41231,16.63,74152.5,17.17,-3.03,6.57,0,*61
1491210443.61,41232,16.63,74154.5,17.19,-3.63,5.85,0,*66
1491210444.88,41233,16.63,74154.0,17.23,-2.71,6.47,0,*61
1491210446.14,41234,16.63,74152.0,17.27,-2.63,6.13,0,*60
1491210447.37,41235,16.63,74156.5,17.31,-2.39,6.13,0,*69
1491210448.58,41236,16.63,74158.0,17.35,-2.91,5.33,0,*6D
1491210449.77,41237,16.63,74158.3,17.37,-2.87,5.15,0,*6D
1491210450.99,41238,16.63,74154.3,17.37,-2.63,5.11,0,*6C
1491210452.21,41239,16.63,74156.5,17.41,-1.95,5.41,0,*63
1491210453.42,41240,16.63,74152.5,17.41,-1.09,6.29,0,*65
1491210454.62,41241,16.63,74154.5,17.45,-0.57,6.69,0,*5E
1491210455.86,41242,16.63,74158.5,17.51,0.29,7.27,0,*77
1491210457.09,41243,16.63,74156.5,17.55,0.59,7.59,0,*7C
1491210458.31,41244,16.63,74158.0,17.59,0.25,7.09,0,*79
1491210459.54,41245,16.63,74156.8,17.63,0.83,7.59,0,*78
1491210460.74,41246,16.63,74156.5,17.67,-0.37,6.29,0,*5B
1491210461.95,41247,16.63,74154.8,17.73,-0.57,5.95,0,*5D
1491210463.16,41248,16.63,74156.3,17.75,-0.41,5.89,0,*5E
1491210464.41,41249,16.63,74154.0,17.77,-0.89,5.11,0,*58
1491210465.68,41250,16.63,74152.3,17.77,-1.87,4.05,0,*6B
1491210466.95,41251,16.63,74154.3,17.77,-1.01,4.79,0,*6F
1491210468.17,41252,16.63,74152.0,17.77,-0.19,5.33,0,*5B
1491210469.37,41253,16.63,74158.3,17.79,0.25,5.49,0,*7B
1491210470.56,41254,16.63,74152.8,17.79,-0.19,5.07,0,*54
1491210471.82,41255,16.63,74152.8,17.81,-0.27,4.79,0,*57
1491210473.02,41256,16.63,74152.5,17.83,-0.07,4.63,0,*6F
1491210474.2,41257,16.63,74158.3,17.83,0.05,4.37,0,*40
1491210475.41,41258,16.63,74156.0,17.81,-0.15,3.81,0,*5B
1491210476.66,41259,16.63,74156.0,17.81,0.51,4.31,0,*7B
1491210477.85,41260,16.63,74156.5,17.79,0.97,4.37,0,*7A
1491210479.03,41261,16.63,74154.3,17.79,0.97,4.15,0,*7B
1491210480.26,41262,16.63,74154.5,17.79,0.95,3.79,0,*77
1491210481.47,41263,16.63,74156.8,17.79,1.09,3.85,0,*41
1491210482.68,41264,16.63,74152.0,17.75,1.41,3.79,0,*45
1491210483.9,41265,16.63,74152.0,17.75,1.37,3.55,0,*4B
1491210485.11,41266,16.63,74152.0,17.73,0.97,2.99,0,*74
1491210486.32,41267,16.63,74154.3,17.69,1.01,2.89,0,*41
1491210487.56,41268,16.63,74152.5,17.69,1.09,2.81,0,*4E
1491210488.77,41269,16.63,74158.5,17.65,1.75,3.33,0,*40
1491210490.03,41270,16.63,74152.5,17.63,2.09,3.41,0,*43
1491210491.29,41271,16.63,74154.3,17.63,2.25,3.53,0,*4F
1491210492.5,41272,16.63,74152.5,17.61,1.47,2.65,0,*4D
1491210493.74,41273,16.63,74152.5,17.59,1.17,2.27,0,*44
1491210494.96,41274,16.63,74152.8,17.59,0.75,1.79,0,*7E
1491210496.19,41275,16.63,74154.8,17.53,1.25,2.09,0,*45
1491210497.43,41276,16.63,74154.8,17.51,1.41,2.13,0,*4D
1491210498.64,41277,16.63,74158.0,17.49,0.21,0.95,0,*4E
1491210499.89,41278,16.63,74156.0,17.43,1.59,2.25,0,*4C
1491210501.12,41279,16.63,74156.8,17.45,1.67,2.47,0,*42
1491210502.36,41280,16.63,74156.0,17.43,1.41,2.13,0,*47
1491210503.57,41281,16.63,74158.8,17.41,0.33,1.47,0,*72
1491210504.83,41282,16.63,74152.8,17.39,0.95,1.85,0,*7C